Other Public Products
Issued by NWS Grand Forks, ND

Home | Current Version | Previous Version | Text Only | Print | Product List | Glossary On
Versions: 1 2 3 4 5 6 7 8 9 10 11 12 13 14 15 16 17 18 19 20 21 22 23 24 25 26 27 28 29 30 31 32 33 34 35 36 37 38 39 40 41 42 43 44 45 46 47 48 49 50
000
FPUS83 KFGF 030231
OPUFGF
PRAIRIE TO PINES WEATHER ROUNDUP
NATIONAL WEATHER SERVICE EASTERN NORTH DAKOTA/GRAND FORKS ND
900 PM CDT WED SEP 02 2015

 **SATELLITE DATA USED TO AUGMENT SKY COVER AT AUTOMATED STATIONS**
 *****  WEATHER ACROSS EASTERN NORTH DAKOTA  *****

CITY           SKY/WX    TMP DP  RH WIND       PRES   REMARKS
GRAND FORKS    PTCLDY    78  65  63 SE10      29.79R
GRAND FORKS AF CLEAR     78  65  65 S9        29.80R
GRAND CITY NWS   N/A     79 N/A N/A SE14        N/A
BUXTON         NOT AVBL
DEVILS LAKE    CLEAR     77  64  65 SE12      29.76S
FARGO          CLEAR     79  67  66 SE10      29.81R
WAHPETON ARPT  CLEAR     73  66  78 SE13      29.83R
$$

 *****  WEATHER ACROSS CENTRAL AND WESTERN NORTH DAKOTA  *****

CITY           SKY/WX    TMP DP  RH WIND       PRES   REMARKS
JAMESTOWN      CLEAR     78  70  76 SE13      29.77R
BISMARCK       CLEAR     73  62  68 SE9       29.73R
MINOT          PTCLDY    79  59  50 SE7       29.69R
MINOT AFB      PTCLDY    75  62  62 S9        29.68R
GARRISON         N/A     77  60  55 SE7       29.71R
WILLISTON      CLOUDY    78  50  37 CALM      29.63S
DICKINSON      PTCLDY    75  51  43 SE9       29.71R
HETTINGER      CLEAR     74  55  51 SE3       29.75S
$$

 *****  OTHER OBSERVATIONS NORTHEAST NORTH DAKOTA  *****

CITY           SKY/WX    TMP DP  RH WIND       PRES   REMARKS
WALHALLA       FAIR      75  66  73 MISG      29.78R
LANGDON        FAIR      75  66  73 SE9       29.81R
CAVALIER       FAIR      79  64  61 SE6       29.78R
GRAFTON        FAIR      75  66  73 SE7       29.79S
CANDO          FAIR      75  68  78 SE10      29.77R
FORT TOTTEN      N/A     79  67  66 SE7       29.95S
ROLLA          FAIR      75  66  73 SE10      29.78S
RUGBY          FAIR      79  70  73 SE13G18   29.74R
 ***** THE ABOVE OBSERVATIONS ARE NON NWS ARE NOT QUALITY
        CONTROLLED AND MAY MIS-REPORT RAIN FOR SNOW...
$$

 *****  OTHER OBSERVATIONS SOUTHEAST NORTH DAKOTA *****

CITY           SKY/WX    TMP DP  RH WIND       PRES   REMARKS
COOPERSTOWN    NOT AVBL
VALLEY CITY    FAIR      75  75 100 SE10      29.80S
OAKES            N/A     77  77 100 E12       29.79R
GWINNER          N/A     77  75  94 E12       29.81R
SHEYENNE NWR     N/A     76  71  84 SE7       29.95S
BUFFALO        NOT AVBL
WYNDMERE         N/A     75  72  88 SE7         N/A
 ***** THE ABOVE OBSERVATIONS ARE NON NWS ARE NOT QUALITY
       CONTROLLED AND MAY MIS-REPORT RAIN FOR SNOW...
$$

  *****  WEATHER ACROSS NORTHERN MINNESOTA  *****

CITY           SKY/WX    TMP DP  RH WIND       PRES   REMARKS
FLAG ISLAND    CLEAR     75  66  73 SE10      29.86R
WARROAD        CLEAR     72  66  83 SE7       29.87R
ROSEAU         CLEAR     73  66  78 SE6       29.85S
HALLOCK        CLEAR     79  64  61 SE9       29.80R
THF RVR FALLS  CLEAR     73  66  78 SE10      29.84S
HALSTAD        NOT AVBL
FOSSTON        CLEAR     72  63  73 SE6       29.87S
BAUDETTE       CLEAR     71  63  75 SE7       29.88R
WASKISH        CLEAR     68  64  88 CALM      29.90R
CROOKSTON      CLEAR     75  66  73 S10       29.83R
$$
  *****  WEATHER ACROSS CENTRAL AND WEST MINNESOTA  *****

CITY           SKY/WX    TMP DP  RH WIND       PRES   REMARKS
BEMIDJI        CLEAR     71  66  84 SE8       29.90R
PARK RAPIDS    CLEAR     73  66  78 SE7       29.91R
WADENA         PTCLDY    70  66  88 E6        29.90R
DETROIT LAKES  CLEAR     73  66  78 SE9       29.89R
MOORHEAD       CLEAR     75  68  78 SE9       29.83S
FERGUS FALLS   CLEAR     75  66  73 SE9       29.84R
ELBOW LAKE     FAIR      73  69  88 E10       29.86R
MORRIS MN      PTCLDY    73  72  94 E10       29.85R FOG
STAPLES        MOCLDY    70  64  83 E3        29.91R
WHEATON        PTCLDY    72  70  94 E9        29.84R
$$
  *****  WEATHER ELSEWHERE ACROSS MINNESOTA  *****

CITY           SKY/WX    TMP DP  RH WIND       PRES   REMARKS
DULUTH         CLEAR     63  61  93 E8        29.96R
INTRNTL FALLS  CLEAR     67  64  90 SE7       29.92R
ELY            CLEAR     63  59  88 SE5       29.97S
CLOQUET        CLEAR     63  61  94 E5        29.96S
BRAINERD       CLEAR     65  63  93 CALM      29.92R
HIBBING        CLEAR     65  64  97 SE5       29.95R
ALEXANDRIA     PTCLDY    72  69  90 E10       29.90R
SAINT CLOUD    FAIR      70  68  93 E6        29.90R
MINNEAPOLIS    MOCLDY    73  68  84 NE7       29.89R
$$

  *****  WEATHER ACROSS SOUTH DAKOTA  *****

CITY           SKY/WX    TMP DP  RH WIND       PRES   REMARKS
SIOUX FALLS    PTCLDY    78  71  79 S7        29.83R
BROOKINGS      CLEAR     75  72  88 SE10      29.86R
WATERTOWN      PTCLDY    79  73  82 SE9       29.83R
HURON          CLEAR     81  73  76 SE12      29.76R
SISSETON         N/A     77  73  87 SE9       29.80R
ABERDEEN       CLEAR     78  72  81 SE7       29.76R
MITCHELL       CLEAR     79  74  84 SE8       29.77R
PIERRE         CLEAR     83  68  60 E9        29.70R
MOBRIDGE       CLEAR     80  74  81 E14       29.71S
RAPID CITY     CLEAR     80  52  37 NE5       29.78R
$$

  *****  SOME WEATHER IN NEARBY STATES *****

CITY           SKY/WX    TMP DP  RH WIND       PRES   REMARKS
GLASGOW MT     PTCLDY    77  38  24 NE13      29.60S
GREAT FALLS MT CLOUDY    70  34  26 W6        29.77R
CHEYENNE WY    MOCLDY    78  40  25 SW6       30.06S
SCOTTSBLUFF NE CLEAR     76  53  44 E5        29.88S
OMAHA NE       MOCLDY    82  72  71 S10       29.85R
DES MOINES IA  MOCLDY    79  70  74 S8        29.91R
DAVENPORT IA   CLEAR     75  69  81 S7        29.95R
CHICAGO IL     MOCLDY    79  67  66 S8        29.96R
EAU CLAIRE WI  MOCLDY    69  67  93 NE6       29.91R
LA CROSSE WI   PTCLDY    78  70  76 S7        29.89R
$$

  *****  SOME NATIONAL WEATHER *****

CITY           SKY/WX    TMP DP  RH WIND       PRES   REMARKS
LA GUARDIA NY  PTCLDY    79  69  71 S9        29.89S
RALEIGH NC     MOCLDY    79  68  69 NE17G24   29.99R
ATLANTA GA     MOCLDY    82  68  62 CALM      30.04R
NEW ORLEANS LA CLOUDY    79  71  76 CALM      29.99R
OKLAHOMA CITY  MOCLDY    78  63  59 SE9       29.95R
ALBUQUERQUE NM CLOUDY    79  45  29 NE9       30.15R
SALT LAKE CITY MOCLDY    87  39  18 S9        29.84F
LOS ANGELES CA PTCLDY    69  61  75 W10       29.89F
BOISE ID       MOCLDY    78  39  24 NW12      29.72S
SEATTLE WA     MOCLDY    60  49  66 N7        29.92R
$$

*** WEATHER ACROSS MANITOBA...SASKATCHEWAN AND ONTARIO ***
                ***ONTARIO***

CITY           SKY/WX    TMP DP  RH WIND       PRES   REMARKS
GERALDTON      PTCLDY    64  57  77 CALM      30.00R
THUNDER BAY    PTCLDY    61  55  82 CALM      29.98R
SIOUX LOOKOUT  PTCLDY    66  57  72 SE3       29.94R
TORONTO        PTCLDY    81  68  65 N2        29.94R
BIG TROUT LK   CLEAR     66  59  77 E8        29.86S
PICKLE LAKE    PTCLDY    72  55  56 S8        29.92R
DRYDEN         CLEAR     73  63  68 SE8       29.93R
KENORA         PTCLDY    75  68  78 SE9       29.89R
$$
                *** MANITOBA***

CITY           SKY/WX    TMP DP  RH WIND       PRES   REMARKS
BRANDON        PTCLDY    81  66  61 S10       29.72R
DAUPHIN        CLEAR     70  59  68 VRB2      29.70R
ISLAND LAKE    MOCLDY    68  64  88 CALM      29.77R
PILOT MOUND      N/A     77  64  65 SE13        N/A
THE PAS        CLOUDY    70  59  68 E6        29.71S
THOMPSON       MOCLDY    59  57  94 NE5       29.78F
WINNIPEG       PTCLDY    79  68  69 SE12      29.77R
LYNN LAKE      CLOUDY    59  50  72 E3        29.77F
CHURCHILL      MOCLDY    52  50  93 SE9       29.81S
GILLAM         PTCLDY    63  57  82 SE6       29.80R
$$
                ***SASKATCHEWAN***

CITY           SKY/WX    TMP DP  RH WIND       PRES   REMARKS
ESTEVAN        CLOUDY    79  61  53 SE9       29.65S
KINDERSLEY     MOCLDY    70  37  30 W14       29.66R
LLOYDMINSTER   MOCLDY    63  46  55 W25G39    29.60R
PRINCE ALBERT  MOCLDY    64  57  77 E7        29.56S
REGINA         CLOUDY    70  52  52 NW5       29.67R



USA.gov is the U.S. government's official web portal to all federal, state and local government web resources and services.